| time (UTC) | temp F | wind direction | speed MPH | gust MPH | rain 1hr in | rain 24hr in | rain mn in | humidity % | barometer mb |
| 20260507115050 | 51 | 2 | 0.0 | 3.0 | 0.00 | 0.28 | 0.05 | 83 | 1012.8 |
| 20260507114550 | 51 | 1 | 0.0 | 3.0 | 0.00 | 0.28 | 0.05 | 83 | 1012.9 |
| 20260507114051 | 51 | 327 | 0.0 | 1.0 | 0.00 | 0.28 | 0.05 | 86 | 1012.8 |
| 20260507113552 | 51 | 326 | 0.0 | 1.0 | 0.00 | 0.28 | 0.05 | 85 | 1012.7 |
| 20260507113053 | 51 | 0 | 0.0 | 1.0 | 0.00 | 0.28 | 0.05 | 86 | 1012.8 |
| 20260507112551 | 51 | 327 | 0.0 | 3.0 | 0.00 | 0.28 | 0.05 | 86 | 1012.8 |
| 20260507112050 | 51 | 38 | 1.0 | 3.0 | 0.00 | 0.28 | 0.05 | 86 | 1012.8 |
| 20260507111556 | 51 | 325 | 0.0 | 2.0 | 0.00 | 0.28 | 0.05 | 86 | 1012.8 |
| 20260507111048 | 51 | 49 | 1.0 | 2.0 | 0.00 | 0.28 | 0.05 | 88 | 1012.8 |
| 20260507110548 | 51 | 8 | 1.0 | 2.0 | 0.00 | 0.28 | 0.05 | 89 | 1012.7 |
| 20260507110059 | 51 | 295 | 0.0 | 2.0 | 0.00 | 0.28 | 0.05 | 90 | 1012.6 |
| 20260507105551 | 51 | 281 | 0.0 | 1.0 | 0.00 | 0.28 | 0.05 | 91 | 1012.6 |
| 20260507105052 | 51 | 281 | 0.0 | 1.0 | 0.00 | 0.28 | 0.05 | 91 | 1012.5 |
| 20260507104555 | 51 | 0 | 0.0 | 1.0 | 0.00 | 0.28 | 0.05 | 91 | 1012.4 |
| 20260507104052 | 51 | 281 | 0.0 | 1.0 | 0.00 | 0.28 | 0.05 | 92 | 1012.5 |
| 20260507103550 | 51 | 0 | 0.0 | 1.0 | 0.00 | 0.28 | 0.05 | 92 | 1012.4 |
| 20260507103059 | 51 | 281 | 0.0 | 1.0 | 0.00 | 0.28 | 0.05 | 92 | 1012.4 |
| 20260507102552 | 51 | 32 | 0.0 | 1.0 | 0.00 | 0.28 | 0.05 | 92 | 1012.2 |
| 20260507102051 | 51 | 0 | 0.0 | 0.0 | 0.00 | 0.28 | 0.05 | 92 | 1012.0 |
| 20260507101557 | 51 | 32 | 0.0 | 1.0 | 0.00 | 0.28 | 0.05 | 92 | 1012.1 |
| 20260507101051 | 51 | 0 | 0.0 | 1.0 | 0.00 | 0.28 | 0.05 | 92 | 1012.0 |
| 20260507100552 | 51 | 0 | 0.0 | 1.0 | 0.00 | 0.28 | 0.05 | 92 | 1011.9 |
| 20260507100058 | 51 | 0 | 0.0 | 1.0 | 0.00 | 0.28 | 0.05 | 92 | 1011.9 |
| 20260507095552 | 51 | 0 | 0.0 | 1.0 | 0.00 | 0.28 | 0.05 | 92 | 1012.0 |
| 20260507095052 | 51 | 0 | 0.0 | 1.0 | 0.00 | 0.28 | 0.05 | 92 | 1012.1 |
| 20260507094555 | 51 | 0 | 0.0 | 0.0 | 0.00 | 0.28 | 0.05 | 92 | 1012.0 |
| 20260507094052 | 51 | 0 | 0.0 | 1.0 | 0.00 | 0.28 | 0.05 | 92 | 1011.9 |
| 20260507093551 | 51 | 0 | 0.0 | 1.0 | 0.00 | 0.28 | 0.05 | 92 | 1011.9 |
| 20260507093053 | 51 | 0 | 1.0 | 2.0 | 0.00 | 0.28 | 0.05 | 92 | 1011.7 |
| 20260507092551 | 51 | 25 | 0.0 | 2.0 | 0.00 | 0.28 | 0.05 | 92 | 1011.8 |
| 20260507092051 | 51 | 0 | 0.0 | 1.0 | 0.00 | 0.28 | 0.05 | 92 | 1011.9 |
| 20260507091559 | 51 | 0 | 0.0 | 1.0 | 0.00 | 0.28 | 0.05 | 92 | 1012.0 |
| 20260507091051 | 51 | 0 | 0.0 | 1.0 | 0.00 | 0.28 | 0.05 | 91 | 1012.1 |
| 20260507090549 | 51 | 0 | 0.0 | 1.0 | 0.00 | 0.28 | 0.05 | 91 | 1012.0 |
| 20260507090059 | 51 | 0 | 0.0 | 1.0 | 0.00 | 0.28 | 0.05 | 92 | 1012.0 |
| 20260507085555 | 51 | 264 | 0.0 | 1.0 | 0.00 | 0.28 | 0.05 | 92 | 1011.9 |
| 20260507085048 | 51 | 332 | 0.0 | 1.0 | 0.00 | 0.28 | 0.05 | 92 | 1011.7 |
| 20260507084558 | 51 | 332 | 0.0 | 1.0 | 0.00 | 0.28 | 0.05 | 92 | 1011.7 |
| 20260507084047 | 51 | 332 | 1.0 | 1.0 | 0.00 | 0.28 | 0.05 | 92 | 1011.6 |
| 20260507083549 | 51 | 358 | 0.0 | 2.0 | 0.00 | 0.28 | 0.05 | 91 | 1011.7 |
| 20260507083057 | 51 | 360 | 0.0 | 2.0 | 0.00 | 0.28 | 0.05 | 91 | 1011.7 |
| 20260507082547 | 51 | 356 | 0.0 | 2.0 | 0.00 | 0.28 | 0.05 | 91 | 1011.5 |
| 20260507082051 | 51 | 339 | 1.0 | 2.0 | 0.00 | 0.28 | 0.05 | 91 | 1011.5 |
| 20260507081555 | 51 | 340 | 0.0 | 4.0 | 0.00 | 0.28 | 0.05 | 92 | 1011.4 |
| 20260507081048 | 52 | 32 | 0.0 | 4.0 | 0.00 | 0.28 | 0.05 | 92 | 1011.1 |
| 20260507080549 | 52 | 41 | 1.0 | 4.0 | 0.00 | 0.28 | 0.05 | 92 | 1011.1 |
| 20260507080116 | 52 | 35 | 2.0 | 3.0 | 0.00 | 0.28 | 0.05 | 92 | 1011.2 |
| 20260507075551 | 52 | 27 | 1.0 | 4.0 | 0.00 | 0.28 | 0.05 | 92 | 1011.2 |
| 20260507075049 | 52 | 48 | 0.0 | 4.0 | 0.00 | 0.28 | 0.05 | 92 | 1011.1 |
| 20260507074601 | 52 | 47 | 1.0 | 4.0 | 0.00 | 0.28 | 0.05 | 92 | 1011.0 |
| 20260507074049 | 52 | 8 | 1.0 | 5.0 | 0.00 | 0.28 | 0.05 | 92 | 1010.9 |
| 20260507073549 | 52 | 24 | 1.0 | 6.0 | 0.00 | 0.28 | 0.05 | 91 | 1010.8 |
| 20260507073103 | 52 | 23 | 2.0 | 6.0 | 0.00 | 0.28 | 0.05 | 91 | 1010.8 |
| 20260507072549 | 52 | 349 | 2.0 | 6.0 | 0.00 | 0.28 | 0.05 | 91 | 1011.0 |
| 20260507072049 | 53 | 45 | 3.0 | 6.0 | 0.00 | 0.28 | 0.05 | 92 | 1010.9 |
| 20260507071602 | 53 | 165 | 1.0 | 4.0 | 0.00 | 0.28 | 0.05 | 93 | 1011.0 |
| 20260507071049 | 53 | 58 | 2.0 | 4.0 | 0.00 | 0.28 | 0.05 | 93 | 1010.8 |
| 20260507070547 | 53 | 32 | 1.0 | 4.0 | 0.00 | 0.28 | 0.05 | 93 | 1010.8 |
| 20260507070057 | 53 | 8 | 1.0 | 3.0 | 0.00 | 0.28 | 0.05 | 93 | 1011.1 |
| 20260507065548 | 54 | 16 | 2.0 | 3.0 | 0.00 | 0.28 | 0.05 | 93 | 1011.0 |
| 20260507065049 | 54 | 353 | 0.0 | 3.0 | 0.00 | 0.28 | 0.05 | 94 | 1011.2 |
| 20260507064600 | 54 | 304 | 1.0 | 2.0 | 0.00 | 0.28 | 0.05 | 94 | 1011.1 |
| 20260507064049 | 54 | 340 | 1.0 | 4.0 | 0.00 | 0.28 | 0.05 | 94 | 1011.1 |
| 20260507063549 | 54 | 307 | 1.0 | 4.0 | 0.00 | 0.28 | 0.05 | 94 | 1011.1 |
| 20260507063059 | 54 | 297 | 1.0 | 3.0 | 0.00 | 0.28 | 0.05 | 94 | 1011.2 |
| 20260507062548 | 54 | 0 | 0.0 | 3.0 | 0.00 | 0.28 | 0.05 | 94 | 1010.8 |
| 20260507062048 | 54 | 22 | 1.0 | 4.0 | 0.01 | 0.28 | 0.05 | 94 | 1010.9 |
| 20260507061556 | 54 | 323 | 1.0 | 4.0 | 0.01 | 0.28 | 0.05 | 94 | 1010.8 |
| 20260507061048 | 54 | 25 | 0.0 | 2.0 | 0.01 | 0.28 | 0.05 | 94 | 1011.0 |
| 20260507060547 | 54 | 40 | 0.0 | 2.0 | 0.01 | 0.28 | 0.05 | 94 | 1011.1 |
| 20260507060110 | 54 | 274 | 0.0 | 2.0 | 0.01 | 0.28 | 0.05 | 94 | 1011.3 |
| 20260507055547 | 54 | 0 | 0.0 | 1.0 | 0.01 | 0.28 | 0.05 | 94 | 1011.1 |
| 20260507055049 | 54 | 27 | 0.0 | 5.0 | 0.02 | 0.28 | 0.05 | 93 | 1011.0 |
| 20260507054605 | 54 | 30 | 1.0 | 5.0 | 0.03 | 0.28 | 0.05 | 93 | 1011.0 |
| 20260507054051 | 54 | 353 | 1.0 | 2.0 | 0.04 | 0.28 | 0.05 | 93 | 1011.3 |
| 20260507053548 | 55 | 23 | 1.0 | 2.0 | 0.05 | 0.28 | 0.05 | 93 | 1011.1 |
| 20260507053056 | 55 | 36 | 0.0 | 2.0 | 0.05 | 0.28 | 0.05 | 92 | 1011.2 |
| 20260507052554 | 55 | 0 | 0.0 | 2.0 | 0.05 | 0.28 | 0.05 | 92 | 1011.4 |
| 20260507052051 | 55 | 348 | 0.0 | 3.0 | 0.04 | 0.27 | 0.04 | 92 | 1011.3 |
| 20260507051553 | 55 | 330 | 0.0 | 3.0 | 0.04 | 0.27 | 0.04 | 92 | 1011.6 |
| 20260507051051 | 55 | 0 | 1.0 | 3.0 | 0.04 | 0.27 | 0.04 | 91 | 1011.2 |
| 20260507050547 | 55 | 37 | 0.0 | 3.0 | 0.04 | 0.27 | 0.04 | 92 | 1011.0 |
| 20260507050051 | 56 | 328 | 1.0 | 3.0 | 0.04 | 0.27 | 0.04 | 91 | 1011.1 |
| 20260507045552 | 56 | 64 | 1.0 | 5.0 | 0.04 | 0.27 | 0.04 | 91 | 1011.4 |
| 20260507045051 | 56 | 28 | 2.0 | 5.0 | 0.03 | 0.26 | 0.03 | 90 | 1011.2 |
| 20260507044550 | 57 | 13 | 1.0 | 3.0 | 0.01 | 0.24 | 0.01 | 89 | 1011.2 |
| 20260507044050 | 57 | 316 | 1.0 | 3.0 | 0.01 | 0.24 | 0.01 | 88 | 1011.3 |
| 20260507043548 | 57 | 309 | 1.0 | 3.0 | 0.00 | 0.23 | 0.00 | 87 | 1011.2 |
| 20260507043053 | 58 | 28 | 1.0 | 3.0 | 0.00 | 0.23 | 0.00 | 87 | 1011.1 |
| 20260507042551 | 58 | 16 | 0.0 | 5.0 | 0.00 | 0.23 | 0.00 | 87 | 1011.3 |
| 20260507042052 | 58 | 314 | 1.0 | 9.0 | 0.00 | 0.23 | 0.00 | 86 | 1011.3 |
| 20260507041558 | 59 | 319 | 1.0 | 9.0 | 0.00 | 0.23 | 0.00 | 85 | 1011.3 |
| 20260507041052 | 59 | 19 | 1.0 | 4.0 | 0.00 | 0.23 | 0.00 | 85 | 1011.1 |
| 20260507040550 | 59 | 299 | 2.0 | 4.0 | 0.00 | 0.23 | 0.00 | 83 | 1011.1 |
| 20260507040104 | 59 | 324 | 2.0 | 4.0 | 0.00 | 0.23 | 0.00 | 83 | 1011.0 |
| 20260507035549 | 60 | 314 | 0.0 | 2.0 | 0.00 | 0.23 | 0.23 | 83 | 1010.5 |
| 20260507035049 | 60 | 305 | 0.0 | 2.0 | 0.00 | 0.23 | 0.23 | 82 | 1010.3 |
| 20260507034557 | 60 | 305 | 1.0 | 2.0 | 0.00 | 0.23 | 0.23 | 81 | 1010.4 |
| 20260507034049 | 60 | 314 | 1.0 | 3.0 | 0.00 | 0.23 | 0.23 | 81 | 1010.6 |
| 20260507033549 | 60 | 319 | 1.0 | 3.0 | 0.00 | 0.23 | 0.23 | 81 | 1010.2 |
| 20260507033051 | 60 | 52 | 1.0 | 3.0 | 0.00 | 0.23 | 0.23 | 81 | 1010.1 |
| 20260507032549 | 61 | 67 | 1.0 | 7.0 | 0.00 | 0.23 | 0.23 | 81 | 1010.4 |
| 20260507032049 | 61 | 300 | 2.0 | 7.0 | 0.00 | 0.23 | 0.23 | 81 | 1010.6 |
| 20260507031555 | 61 | 311 | 2.0 | 5.0 | 0.00 | 0.23 | 0.23 | 81 | 1010.5 |
| 20260507031050 | 61 | 53 | 1.0 | 3.0 | 0.00 | 0.23 | 0.23 | 82 | 1010.3 |
| 20260507030549 | 61 | 315 | 1.0 | 2.0 | 0.00 | 0.23 | 0.23 | 82 | 1010.3 |
| 20260507030056 | 61 | 311 | 0.0 | 3.0 | 0.00 | 0.23 | 0.23 | 82 | 1010.5 |
| 20260507025549 | 61 | 311 | 0.0 | 5.0 | 0.00 | 0.23 | 0.23 | 82 | 1010.2 |
| 20260507025049 | 61 | 322 | 1.0 | 6.0 | 0.00 | 0.23 | 0.23 | 82 | 1010.1 |
| 20260507024552 | 62 | 12 | 2.0 | 6.0 | 0.00 | 0.23 | 0.23 | 83 | 1010.1 |
| 20260507024049 | 62 | 36 | 2.0 | 5.0 | 0.00 | 0.23 | 0.23 | 85 | 1010.0 |
| 20260507023552 | 62 | 302 | 2.0 | 4.0 | 0.00 | 0.23 | 0.23 | 84 | 1010.1 |
| 20260507023052 | 62 | 304 | 1.0 | 4.0 | 0.00 | 0.23 | 0.23 | 85 | 1010.1 |
| 20260507022548 | 63 | 354 | 1.0 | 4.0 | 0.00 | 0.23 | 0.23 | 85 | 1009.9 |
| 20260507022049 | 63 | 296 | 2.0 | 7.0 | 0.00 | 0.23 | 0.23 | 85 | 1009.8 |
| 20260507021551 | 63 | 360 | 2.0 | 7.0 | 0.00 | 0.23 | 0.23 | 86 | 1009.6 |
| 20260507021049 | 63 | 325 | 1.0 | 4.0 | 0.00 | 0.23 | 0.23 | 87 | 1009.8 |
| 20260507020549 | 63 | 314 | 1.0 | 3.0 | 0.00 | 0.23 | 0.23 | 88 | 1009.8 |
| 20260507015548 | 64 | 308 | 2.0 | 4.0 | 0.00 | 0.23 | 0.23 | 87 | 1009.9 |
| 20260507015048 | 64 | 284 | 2.0 | 4.0 | 0.00 | 0.23 | 0.23 | 87 | 1009.9 |
| 20260507014602 | 64 | 311 | 2.0 | 4.0 | 0.00 | 0.23 | 0.23 | 86 | 1009.6 |
| 20260507014049 | 64 | 285 | 0.0 | 2.0 | 0.00 | 0.23 | 0.23 | 86 | 1009.6 |
| 20260507013548 | 64 | 292 | 1.0 | 5.0 | 0.00 | 0.23 | 0.23 | 86 | 1009.6 |
| 20260507013051 | 64 | 285 | 1.0 | 5.0 | 0.00 | 0.23 | 0.23 | 85 | 1009.9 |
| 20260507012549 | 64 | 306 | 2.0 | 6.0 | 0.00 | 0.23 | 0.23 | 85 | 1009.9 |
| 20260507012049 | 65 | 311 | 3.0 | 6.0 | 0.00 | 0.23 | 0.23 | 85 | 1010.0 |
| 20260507011601 | 65 | 283 | 1.0 | 6.0 | 0.00 | 0.23 | 0.23 | 84 | 1010.0 |
| 20260507011049 | 65 | 300 | 1.0 | 6.0 | 0.00 | 0.23 | 0.23 | 85 | 1009.8 |
| 20260507010548 | 65 | 274 | 3.0 | 5.0 | 0.00 | 0.23 | 0.23 | 84 | 1010.0 |
| 20260507010052 | 65 | 316 | 1.0 | 7.0 | 0.00 | 0.23 | 0.23 | 85 | 1010.1 |
| 20260507005549 | 66 | 293 | 2.0 | 7.0 | 0.00 | 0.23 | 0.23 | 85 | 1009.9 |
| 20260507005053 | 66 | 283 | 2.0 | 5.0 | 0.00 | 0.23 | 0.23 | 86 | 1009.8 |
| 20260507004553 | 66 | 293 | 0.0 | 1.0 | 0.00 | 0.23 | 0.23 | 87 | 1009.7 |
| 20260507004048 | 66 | 160 | 0.0 | 1.0 | 0.00 | 0.23 | 0.23 | 87 | 1009.5 |
| 20260507003549 | 66 | 159 | 0.0 | 1.0 | 0.00 | 0.23 | 0.23 | 88 | 1009.5 |
| 20260507003052 | 66 | 0 | 0.0 | 0.0 | 0.00 | 0.23 | 0.23 | 87 | 1009.4 |
| 20260507002548 | 66 | 0 | 0.0 | 0.0 | 0.00 | 0.23 | 0.23 | 87 | 1009.5 |
| 20260507002051 | 66 | 0 | 0.0 | 0.0 | 0.00 | 0.23 | 0.23 | 86 | 1009.5 |
| 20260507001605 | 66 | 160 | 0.0 | 1.0 | 0.00 | 0.23 | 0.23 | 86 | 1009.3 |
| 20260507001047 | 66 | 160 | 0.0 | 1.0 | 0.00 | 0.23 | 0.23 | 85 | 1009.2 |
| 20260507000551 | 66 | 160 | 0.0 | 1.0 | 0.00 | 0.23 | 0.23 | 85 | 1009.2 |
| 20260507000058 | 66 | 160 | 0.0 | 1.0 | 0.00 | 0.23 | 0.23 | 85 | 1009.1 |
| 20260506235548 | 67 | 158 | 0.0 | 1.0 | 0.00 | 0.23 | 0.23 | 85 | 1009.1 |
| 20260506235050 | 67 | 0 | 0.0 | 1.0 | 0.00 | 0.23 | 0.23 | 85 | 1009.1 |
| 20260506234555 | 67 | 242 | 0.0 | 2.0 | 0.00 | 0.23 | 0.23 | 85 | 1009.0 |
| 20260506234048 | 67 | 242 | 0.0 | 2.0 | 0.00 | 0.23 | 0.23 | 84 | 1008.7 |
| 20260506233549 | 67 | 146 | 1.0 | 2.0 | 0.00 | 0.23 | 0.23 | 84 | 1008.5 |
| 20260506233052 | 67 | 210 | 1.0 | 2.0 | 0.00 | 0.23 | 0.23 | 83 | 1008.7 |
| 20260506232550 | 67 | 155 | 1.0 | 2.0 | 0.00 | 0.23 | 0.23 | 83 | 1008.8 |
| 20260506232048 | 68 | 164 | 0.0 | 2.0 | 0.00 | 0.23 | 0.23 | 83 | 1008.6 |
| 20260506231551 | 68 | 219 | 1.0 | 3.0 | 0.00 | 0.23 | 0.23 | 83 | 1008.5 |
| 20260506231048 | 68 | 142 | 1.0 | 3.0 | 0.00 | 0.23 | 0.23 | 82 | 1008.4 |
| 20260506230550 | 68 | 230 | 1.0 | 2.0 | 0.00 | 0.23 | 0.23 | 82 | 1008.5 |
| 20260506230053 | 68 | 150 | 0.0 | 2.0 | 0.00 | 0.23 | 0.23 | 82 | 1008.5 |
| 20260506225550 | 68 | 163 | 1.0 | 3.0 | 0.00 | 0.23 | 0.23 | 82 | 1008.5 |
| 20260506225049 | 68 | 153 | 1.0 | 3.0 | 0.00 | 0.23 | 0.23 | 82 | 1008.6 |
| 20260506224554 | 68 | 219 | 0.0 | 2.0 | 0.00 | 0.23 | 0.23 | 82 | 1008.6 |
| 20260506224049 | 68 | 158 | 0.0 | 2.0 | 0.00 | 0.23 | 0.23 | 82 | 1008.4 |
| 20260506223548 | 68 | 212 | 0.0 | 2.0 | 0.00 | 0.23 | 0.23 | 81 | 1008.2 |
| 20260506223055 | 68 | 241 | 0.0 | 2.0 | 0.00 | 0.23 | 0.23 | 82 | 1008.4 |
| 20260506222548 | 68 | 155 | 0.0 | 1.0 | 0.00 | 0.23 | 0.23 | 82 | 1008.5 |
| 20260506222052 | 68 | 223 | 0.0 | 3.0 | 0.00 | 0.23 | 0.23 | 82 | 1008.6 |
| 20260506221553 | 68 | 139 | 0.0 | 4.0 | 0.00 | 0.23 | 0.23 | 82 | 1008.7 |
| 20260506221048 | 68 | 148 | 1.0 | 4.0 | 0.00 | 0.23 | 0.23 | 81 | 1008.6 |
| 20260506220548 | 68 | 162 | 2.0 | 4.0 | 0.00 | 0.23 | 0.23 | 80 | 1008.6 |
| 20260506220106 | 68 | 172 | 1.0 | 5.0 | 0.00 | 0.23 | 0.23 | 81 | 1008.6 |
| 20260506215548 | 68 | 264 | 1.0 | 5.0 | 0.00 | 0.23 | 0.23 | 80 | 1008.5 |
| 20260506215049 | 68 | 124 | 2.0 | 5.0 | 0.00 | 0.23 | 0.23 | 80 | 1008.5 |
| 20260506214552 | 68 | 243 | 0.0 | 6.0 | 0.00 | 0.23 | 0.23 | 80 | 1008.7 |
| 20260506214050 | 69 | 148 | 1.0 | 6.0 | 0.00 | 0.23 | 0.23 | 80 | 1008.6 |
| 20260506213553 | 69 | 133 | 2.0 | 4.0 | 0.00 | 0.23 | 0.23 | 80 | 1008.5 |
| 20260506213100 | 69 | 214 | 2.0 | 6.0 | 0.00 | 0.23 | 0.23 | 79 | 1008.5 |
| 20260506212549 | 69 | 257 | 2.0 | 6.0 | 0.00 | 0.23 | 0.23 | 79 | 1008.2 |
| 20260506212050 | 69 | 252 | 3.0 | 6.0 | 0.00 | 0.23 | 0.23 | 78 | 1008.2 |
| 20260506211555 | 69 | 167 | 1.0 | 6.0 | 0.00 | 0.23 | 0.23 | 79 | 1008.2 |
| 20260506211049 | 69 | 226 | 1.0 | 6.0 | 0.00 | 0.23 | 0.23 | 80 | 1008.2 |
| 20260506210548 | 69 | 119 | 2.0 | 4.0 | 0.00 | 0.23 | 0.23 | 79 | 1008.2 |
| 20260506210119 | 69 | 212 | 2.0 | 5.0 | 0.00 | 0.23 | 0.23 | 79 | 1008.1 |
| 20260506205547 | 69 | 181 | 2.0 | 5.0 | 0.00 | 0.23 | 0.23 | 78 | 1007.9 |
| 20260506205050 | 69 | 0 | 2.0 | 6.0 | 0.00 | 0.23 | 0.23 | 78 | 1008.0 |
| 20260506204558 | 69 | 153 | 3.0 | 6.0 | 0.00 | 0.23 | 0.23 | 79 | 1008.0 |
| 20260506204051 | 69 | 231 | 1.0 | 3.0 | 0.00 | 0.23 | 0.23 | 79 | 1007.8 |
| 20260506203548 | 69 | 155 | 1.0 | 4.0 | 0.00 | 0.23 | 0.23 | 79 | 1007.9 |
| 20260506203141 | 69 | 264 | 1.0 | 4.0 | 0.00 | 0.23 | 0.23 | 80 | 1007.9 |
| 20260506202552 | 69 | 269 | 2.0 | 8.0 | 0.00 | 0.23 | 0.23 | 79 | 1008.1 |
| 20260506202049 | 69 | 247 | 3.0 | 8.0 | 0.00 | 0.23 | 0.23 | 79 | 1008.2 |
| 20260506201558 | 69 | 207 | 3.0 | 7.0 | 0.00 | 0.23 | 0.23 | 79 | 1008.1 |
| 20260506201050 | 69 | 229 | 2.0 | 7.0 | 0.00 | 0.23 | 0.23 | 78 | 1008.0 |
| 20260506200549 | 69 | 94 | 1.0 | 10.0 | 0.00 | 0.23 | 0.23 | 78 | 1008.0 |
| 20260506200056 | 70 | 165 | 2.0 | 10.0 | 0.00 | 0.23 | 0.23 | 77 | 1008.1 |
| 20260506195548 | 70 | 170 | 3.0 | 6.0 | 0.00 | 0.23 | 0.23 | 76 | 1008.1 |
| 20260506195048 | 70 | 264 | 1.0 | 6.0 | 0.00 | 0.23 | 0.23 | 77 | 1007.9 |
| 20260506194558 | 70 | 221 | 2.0 | 6.0 | 0.00 | 0.23 | 0.23 | 77 | 1008.0 |
| 20260506194048 | 70 | 259 | 3.0 | 8.0 | 0.00 | 0.23 | 0.23 | 78 | 1008.0 |
| 20260506193549 | 70 | 200 | 4.0 | 8.0 | 0.00 | 0.23 | 0.23 | 79 | 1008.0 |
| 20260506193057 | 70 | 248 | 3.0 | 7.0 | 0.00 | 0.23 | 0.23 | 77 | 1008.1 |
| 20260506192549 | 70 | 174 | 2.0 | 7.0 | 0.00 | 0.23 | 0.23 | 78 | 1008.0 |
| 20260506192049 | 69 | 241 | 3.0 | 7.0 | 0.00 | 0.23 | 0.23 | 79 | 1008.1 |
| 20260506191604 | 69 | 283 | 2.0 | 10.0 | 0.00 | 0.23 | 0.23 | 79 | 1008.1 |
| 20260506191049 | 69 | 128 | 2.0 | 10.0 | 0.00 | 0.23 | 0.23 | 79 | 1008.3 |
| 20260506190549 | 69 | 141 | 3.0 | 7.0 | 0.00 | 0.23 | 0.23 | 79 | 1008.3 |
| 20260506190100 | 69 | 152 | 1.0 | 8.0 | 0.00 | 0.23 | 0.23 | 81 | 1008.3 |
| 20260506185548 | 68 | 284 | 3.0 | 8.0 | 0.00 | 0.23 | 0.23 | 80 | 1008.3 |
| 20260506185049 | 68 | 255 | 4.0 | 8.0 | 0.00 | 0.23 | 0.23 | 81 | 1008.4 |
| 20260506184603 | 68 | 246 | 3.0 | 7.0 | 0.00 | 0.23 | 0.23 | 82 | 1008.5 |
| 20260506184052 | 67 | 107 | 3.0 | 9.0 | 0.00 | 0.23 | 0.23 | 83 | 1008.6 |
| 20260506183548 | 67 | 6 | 4.0 | 11.0 | 0.00 | 0.23 | 0.23 | 83 | 1008.7 |
| 20260506183105 | 66 | 184 | 3.0 | 11.0 | 0.00 | 0.23 | 0.23 | 82 | 1008.7 |
| 20260506182548 | 66 | 265 | 4.0 | 10.0 | 0.00 | 0.23 | 0.23 | 83 | 1008.7 |
| 20260506182048 | 66 | 250 | 3.0 | 9.0 | 0.00 | 0.23 | 0.23 | 84 | 1008.7 |
| 20260506181601 | 65 | 108 | 3.0 | 10.0 | 0.00 | 0.23 | 0.23 | 85 | 1008.6 |
| 20260506181051 | 65 | 294 | 4.0 | 10.0 | 0.00 | 0.23 | 0.23 | 84 | 1008.7 |
| 20260506180551 | 65 | 167 | 2.0 | 10.0 | 0.00 | 0.23 | 0.23 | 84 | 1008.8 |
| 20260506180058 | 65 | 269 | 3.0 | 11.0 | 0.00 | 0.23 | 0.23 | 84 | 1008.7 |
| 20260506175548 | 65 | 259 | 3.0 | 12.0 | 0.00 | 0.23 | 0.23 | 86 | 1008.8 |
| 20260506175052 | 65 | 147 | 4.0 | 12.0 | 0.00 | 0.23 | 0.23 | 86 | 1008.9 |
| 20260506174608 | 64 | 182 | 3.0 | 10.0 | 0.00 | 0.23 | 0.23 | 86 | 1008.8 |
| 20260506174052 | 64 | 252 | 4.0 | 10.0 | 0.00 | 0.23 | 0.23 | 86 | 1009.0 |
| 20260506173548 | 64 | 205 | 2.0 | 8.0 | 0.00 | 0.23 | 0.23 | 87 | 1008.9 |
| 20260506173056 | 64 | 231 | 4.0 | 8.0 | 0.00 | 0.23 | 0.23 | 87 | 1008.8 |
| 20260506172550 | 64 | 225 | 4.0 | 8.0 | 0.00 | 0.23 | 0.23 | 88 | 1008.9 |
| 20260506172048 | 63 | 164 | 2.0 | 8.0 | 0.00 | 0.23 | 0.23 | 88 | 1009.0 |
| 20260506171610 | 63 | 110 | 3.0 | 11.0 | 0.00 | 0.23 | 0.23 | 89 | 1009.1 |
| 20260506171048 | 63 | 243 | 2.0 | 11.0 | 0.00 | 0.23 | 0.23 | 90 | 1009.0 |
| 20260506170550 | 63 | 273 | 3.0 | 9.0 | 0.00 | 0.23 | 0.23 | 89 | 1009.0 |
| 20260506170054 | 62 | 278 | 3.0 | 9.0 | 0.00 | 0.23 | 0.23 | 90 | 1009.1 |
| 20260506165549 | 62 | 263 | 4.0 | 9.0 | 0.00 | 0.23 | 0.23 | 90 | 1009.1 |
| 20260506165050 | 62 | 156 | 1.0 | 11.0 | 0.00 | 0.23 | 0.23 | 91 | 1009.1 |
| 20260506164554 | 62 | 105 | 3.0 | 11.0 | 0.00 | 0.23 | 0.23 | 91 | 1009.1 |
| 20260506164049 | 62 | 224 | 3.0 | 11.0 | 0.00 | 0.23 | 0.23 | 91 | 1009.2 |
| 20260506163549 | 62 | 203 | 3.0 | 10.0 | 0.00 | 0.23 | 0.23 | 91 | 1009.2 |
| 20260506163107 | 62 | 136 | 3.0 | 11.0 | 0.00 | 0.23 | 0.23 | 91 | 1009.1 |
| 20260506162548 | 61 | 226 | 2.0 | 11.0 | 0.00 | 0.23 | 0.23 | 92 | 1009.1 |
| 20260506162052 | 61 | 218 | 3.0 | 10.0 | 0.00 | 0.23 | 0.23 | 92 | 1009.2 |
| 20260506161553 | 61 | 208 | 2.0 | 10.0 | 0.01 | 0.23 | 0.23 | 92 | 1009.1 |
| 20260506161048 | 61 | 129 | 5.0 | 10.0 | 0.01 | 0.23 | 0.23 | 91 | 1009.3 |
| 20260506160548 | 61 | 156 | 4.0 | 10.0 | 0.01 | 0.23 | 0.23 | 92 | 1009.3 |
| 20260506160055 | 61 | 261 | 3.0 | 9.0 | 0.01 | 0.23 | 0.23 | 92 | 1009.4 |
| 20260506155548 | 61 | 188 | 4.0 | 9.0 | 0.01 | 0.23 | 0.23 | 92 | 1009.4 |
| 20260506155048 | 60 | 148 | 3.0 | 9.0 | 0.01 | 0.23 | 0.23 | 93 | 1009.1 |
| 20260506154555 | 60 | 196 | 3.0 | 12.0 | 0.02 | 0.23 | 0.23 | 93 | 1009.2 |
| 20260506154050 | 60 | 240 | 3.0 | 12.0 | 0.02 | 0.23 | 0.23 | 93 | 1009.3 |
| 20260506153547 | 60 | 160 | 4.0 | 10.0 | 0.02 | 0.23 | 0.23 | 93 | 1009.4 |
| 20260506153100 | 60 | 163 | 3.0 | 9.0 | 0.02 | 0.23 | 0.23 | 93 | 1009.5 |
| 20260506152547 | 60 | 157 | 3.0 | 11.0 | 0.03 | 0.23 | 0.23 | 93 | 1009.4 |
| 20260506152047 | 60 | 227 | 4.0 | 11.0 | 0.02 | 0.22 | 0.22 | 93 | 1009.4 |
| 20260506151556 | 60 | 261 | 3.0 | 10.0 | 0.04 | 0.22 | 0.22 | 93 | 1009.4 |
| 20260506151047 | 60 | 250 | 3.0 | 10.0 | 0.04 | 0.22 | 0.22 | 93 | 1009.6 |
| 20260506150547 | 60 | 181 | 3.0 | 8.0 | 0.05 | 0.22 | 0.22 | 93 | 1009.7 |
| 20260506150052 | 60 | 160 | 3.0 | 8.0 | 0.06 | 0.22 | 0.22 | 93 | 1009.8 |
| 20260506145551 | 60 | 174 | 2.0 | 10.0 | 0.08 | 0.22 | 0.22 | 93 | 1009.9 |
| 20260506145047 | 60 | 210 | 3.0 | 10.0 | 0.08 | 0.22 | 0.22 | 93 | 1010.1 |
| 20260506144551 | 60 | 171 | 2.0 | 8.0 | 0.08 | 0.21 | 0.21 | 93 | 1010.2 |
| 20260506144048 | 60 | 170 | 2.0 | 6.0 | 0.09 | 0.21 | 0.21 | 93 | 1010.2 |
| 20260506143548 | 60 | 247 | 3.0 | 7.0 | 0.11 | 0.21 | 0.21 | 93 | 1010.1 |
| 20260506143050 | 60 | 122 | 3.0 | 8.0 | 0.11 | 0.21 | 0.21 | 93 | 1010.2 |
| 20260506142547 | 60 | 201 | 2.0 | 8.0 | 0.11 | 0.20 | 0.20 | 93 | 1010.1 |
| 20260506142048 | 60 | 255 | 2.0 | 9.0 | 0.11 | 0.20 | 0.20 | 93 | 1009.9 |
| 20260506141552 | 60 | 145 | 2.0 | 9.0 | 0.10 | 0.18 | 0.18 | 93 | 1009.9 |
| 20260506141048 | 60 | 158 | 2.0 | 10.0 | 0.10 | 0.18 | 0.18 | 92 | 1010.1 |
| 20260506140549 | 60 | 109 | 4.0 | 10.0 | 0.10 | 0.17 | 0.17 | 92 | 1009.9 |
| 20260506140053 | 60 | 165 | 3.0 | 8.0 | 0.10 | 0.16 | 0.16 | 92 | 1009.9 |
| 20260506135548 | 60 | 213 | 3.0 | 8.0 | 0.09 | 0.14 | 0.14 | 92 | 1010.0 |
| 20260506135048 | 60 | 216 | 2.0 | 7.0 | 0.09 | 0.14 | 0.14 | 92 | 1010.0 |
| 20260506134550 | 60 | 162 | 2.0 | 6.0 | 0.09 | 0.13 | 0.13 | 92 | 1010.0 |
| 20260506134048 | 60 | 147 | 2.0 | 5.0 | 0.08 | 0.12 | 0.12 | 92 | 1010.1 |
| 20260506133547 | 60 | 133 | 2.0 | 6.0 | 0.07 | 0.10 | 0.10 | 92 | 1010.3 |
| 20260506133054 | 60 | 179 | 1.0 | 9.0 | 0.08 | 0.10 | 0.10 | 92 | 1010.6 |
| 20260506132550 | 60 | 124 | 3.0 | 9.0 | 0.07 | 0.09 | 0.09 | 92 | 1010.8 |
| 20260506132049 | 60 | 224 | 3.0 | 8.0 | 0.08 | 0.09 | 0.09 | 91 | 1010.7 |
| 20260506131551 | 60 | 257 | 2.0 | 5.0 | 0.07 | 0.08 | 0.08 | 91 | 1010.5 |
| 20260506131048 | 60 | 174 | 2.0 | 5.0 | 0.07 | 0.08 | 0.08 | 91 | 1010.2 |
| 20260506130554 | 60 | 214 | 2.0 | 5.0 | 0.06 | 0.07 | 0.07 | 91 | 1010.1 |
| 20260506130050 | 60 | 212 | 2.0 | 5.0 | 0.06 | 0.06 | 0.06 | 90 | 1010.0 |
| 20260506125549 | 60 | 227 | 1.0 | 4.0 | 0.05 | 0.05 | 0.05 | 90 | 1010.0 |
| 20260506125048 | 61 | 191 | 1.0 | 4.0 | 0.05 | 0.05 | 0.05 | 90 | 1010.0 |
| 20260506124556 | 61 | 148 | 2.0 | 5.0 | 0.04 | 0.04 | 0.04 | 89 | 1010.0 |
| 20260506124048 | 61 | 150 | 1.0 | 5.0 | 0.04 | 0.04 | 0.04 | 89 | 1009.9 |
| 20260506123548 | 61 | 155 | 1.0 | 4.0 | 0.03 | 0.03 | 0.03 | 88 | 1009.9 |
| 20260506123104 | 61 | 169 | 1.0 | 4.0 | 0.02 | 0.02 | 0.02 | 87 | 1009.9 |
| 20260506122548 | 61 | 186 | 1.0 | 4.0 | 0.02 | 0.02 | 0.02 | 87 | 1010.1 |
| 20260506122047 | 61 | 141 | 1.0 | 4.0 | 0.01 | 0.01 | 0.01 | 86 | 1010.3 |
| 20260506121602 | 62 | 151 | 1.0 | 4.0 | 0.01 | 0.01 | 0.01 | 86 | 1010.4 |
| 20260506121048 | 62 | 137 | 2.0 | 4.0 | 0.01 | 0.01 | 0.01 | 85 | 1010.5 |
| 20260506120550 | 62 | 159 | 2.0 | 4.0 | 0.01 | 0.01 | 0.01 | 84 | 1010.6 |
| 20260506120051 | 62 | 228 | 2.0 | 5.0 | 0.00 | 0.00 | 0.00 | 83 | 1010.6 |
| 20260506115549 | 62 | 220 | 2.0 | 5.0 | 0.00 | 0.00 | 0.00 | 82 | 1010.5 |